Regional Weather Roundup
Issued by NWS New Orleans/Baton Rouge, LA

Home | Current Version | Previous Version | Graphics & Text | Print | Product List | Glossary On
Versions: 1 2 3 4 5 6 7 8 9 10 11 12 13 14 15 16 17 18 19 20 21 22 23 24 25 26 27 28 29 30 31 32 33 34 35 36 37 38 39 40 41 42 43 44 45 46 47 48 49 50
621
ASUS44 KLIX 240610
RWRLIX
NEW ORLEANS REGIONAL WEATHER ROUNDUP
NATIONAL WEATHER SERVICE NEW ORLEANS LA
100 AM CDT FRI OCT 24 2014

NOTE: "FAIR" INDICATES FEW OR NO CLOUDS BELOW 12,000 FEET WITH NO
      SIGNIFICANT WEATHER AND/OR OBSTRUCTIONS TO VISIBILITY.
      SKY/WX - SKY CONDITION AND SIGNIFICANT WEATHER.
      TMP - AIR TEMPERATURE.     DP    - DEWPOINT TEMPERATURE.
      RH  - RELATIVE HUMIDITY.   PRES  - PRESSURE.
      HI  - HEAT INDEX.          WCI   - WIND CHILL INDEX.

*  THESE STATIONS ARE NOT NWS OR FAA STATIONS AND ARE NOT UNDER
   NWS QUALITY CONTROL.

LAZ038-040-048-061>063-065>067-069-240700-
SOUTHEAST LOUISIANA

CITY           SKY/WX    TMP DP  RH WIND       PRES   REMARKS
N.O. AUDUBON   NOT AVBL
N.O. INTL ARPT PTCLDY    64  50  60 NE9       30.07S
6HR MIN TEMP:  61; 6HR MAX TEMP:  69;

N.O. LAKEFRONT CLEAR     67  50  54 NE15      30.08S
6HR MIN TEMP:  67; 6HR MAX TEMP:  70;

N.O. DOWNTOWN*   N/A     64  46  52 N5        30.08S
6HR MIN TEMP:  64; 6HR MAX TEMP:  72;

SLIDELL        CLEAR     53  50  89 CALM      30.07F
6HR MIN TEMP:  53; 6HR MAX TEMP:  63;

BATON ROUGE    CLEAR     52  50  93 CALM      30.10R
6HR MIN TEMP:  52; 6HR MAX TEMP:  63;

BOOTHVILLE     PTCLDY    69  52  54 NE5       30.05F
6HR MIN TEMP:  68; 6HR MAX TEMP:  70;

BELLE CHASSE   CLEAR     53  50  89 CALM      30.07S
6HR MIN TEMP:  53; 6HR MAX TEMP:  62;

BOGALUSA*        N/A     52  48  87 CALM      30.10S
6HR MIN TEMP:  51; 6HR MAX TEMP:  67;

NEW ROADS*       N/A     52  49  91 CALM      30.10S
6HR MIN TEMP:  51; 6HR MAX TEMP:  61;

GONZALES*        N/A     54  54  99 CALM      30.08S
6HR MIN TEMP:  54; 6HR MAX TEMP:  63;

HAMMOND*       CLEAR     52  48  87 CALM      30.10S
HOUMA*         CLEAR     56  53  90 NW5       30.07S
6HR MIN TEMP:  53; 6HR MAX TEMP:  65;

PORT FOURCHON* CLEAR     66  59  77 N5        30.09S

$$

MSZ070-080>082-240700-
SOUTHERN MISSISSIPPI

CITY           SKY/WX    TMP DP  RH WIND       PRES   REMARKS
MCCOMB         CLEAR     54  48  80 N7        30.10S
6HR MIN TEMP:  54; 6HR MAX TEMP:  63;

GULFPORT       PTCLDY    59  46  62 N5        30.06F
6HR MIN TEMP:  58; 6HR MAX TEMP:  66;

BILOXI         PTCLDY    59  48  66 VRB6      30.06F
6HR MIN TEMP:  59; 6HR MAX TEMP:  68;

PASCAGOULA     PTCLDY    51  49  92 CALM      30.06F
6HR MIN TEMP:  50; 6HR MAX TEMP:  59;


$$

COASTAL OBSERVATIONS
LAKE AND NEARSHORE STATIONS

STATION/POSITION TIME  TEMP    WIND        PRES    WAVE
                       AIR SEA DIR/SP/G            HT/PER
                 (UTC) (F)     (DEG/KT/KT) (MB)    (FT/S)
PASCAGOULA       0600   61     360/  6/  8 1017.1
WAVELAND YACHT   0600   62      30/ 11/ 14 1017.3
GRAND ISLE       0600   68 73   60/  4/  6 1018.2
SOUTHWEST PASS   0600   71 81              1017.8
NEW CANAL        0600   67 70   50/ 14/ 15 1018.5
SHELL BEACH      0600   69 68   20/  7/  9 1017.7

OFFSHORE STATIONS

STATION/POSITION TIME  TEMP    WIND        PRES    WAVE
                       AIR SEA DIR/SP/G            HT/PER
                 (UTC) (F)     (DEG/KT/KT) (MB)    (FT/S)
64 S DAUPHIN ISL 0500   72 78   30/ 10/ 12 1017.6    3/ 6

$$




USA.gov is the U.S. government's official web portal to all federal, state and local government web resources and services.